BV5AB-33 Weather Reports


Display with metric or nautical units.
time (UTC)temp
F
wind
direction
speed
MPH
gust
MPH
rain 1hr
in
rain 24hr
in
rain mn
in
humidity
%
barometer
mb
20260508060948 90 229 0.0 2.0 0.00 0.15 0.05 55 981.8
20260508060447 90 90 0.0 1.0 0.00 0.15 0.05 56 981.8
20260508055447 90 1 0.0 2.0 0.00 0.15 0.05 55 982.0
20260508054948 90 333 0.0 2.0 0.00 0.15 0.05 55 981.8
20260508054448 90 308 0.0 1.0 0.00 0.15 0.05 54 981.9
20260508053948 90 314 0.0 1.0 0.00 0.15 0.05 53 982.0
20260508053448 90 229 0.0 4.0 0.00 0.15 0.05 52 982.0
20260508052948 90 229 0.0 4.0 0.00 0.15 0.05 53 982.1
20260508052448 90 259 0.0 2.0 0.00 0.15 0.05 52 982.0
20260508051947 90 266 0.0 4.0 0.00 0.15 0.05 53 982.3
20260508051448 90 192 0.0 4.0 0.00 0.15 0.05 52 982.4
20260508050948 90 129 0.0 4.0 0.00 0.15 0.05 53 982.5
20260508050448 90 46 0.0 1.0 0.00 0.15 0.05 54 982.5
20260508045448 89 1 0.0 1.0 0.00 0.15 0.05 54 982.4
20260508044448 89 0 0.0 0.0 0.00 0.15 0.05 54 982.7
20260508043948 89 0 0.0 0.0 0.00 0.15 0.05 54 982.6
20260508043449 89 0 0.0 0.0 0.00 0.15 0.05 53 982.7
20260508042447 89 0 0.0 0.0 0.00 0.15 0.05 54 982.7
20260508041448 89 135 0.0 2.0 0.00 0.15 0.05 53 982.8
20260508040948 89 152 0.0 2.0 0.00 0.15 0.05 52 982.6
20260508040448 90 151 0.0 1.0 0.00 0.15 0.05 52 983.0
20260508035948 90 90 0.0 1.0 0.00 0.15 0.05 51 983.1
20260508035448 90 46 0.0 1.0 0.00 0.15 0.05 51 983.2
20260508034948 90 80 0.0 1.0 0.00 0.15 0.05 51 983.1
20260508034448 90 137 0.0 1.0 0.00 0.15 0.05 51 983.2
20260508033948 90 262 0.0 4.0 0.00 0.15 0.05 52 983.3
20260508033448 90 243 0.0 4.0 0.00 0.15 0.05 52 983.5
20260508032448 89 0 0.0 0.0 0.00 0.15 0.05 52 983.5
20260508031948 89 0 0.0 0.0 0.00 0.15 0.05 52 983.7
20260508030948 89 0 0.0 0.0 0.00 0.15 0.05 52 983.7
20260508030448 89 314 0.0 4.0 0.00 0.15 0.05 51 983.6
20260508025949 89 327 0.0 4.0 0.00 0.15 0.05 51 983.7
20260508025448 89 13 0.0 2.0 0.00 0.15 0.05 51 983.7
20260508024448 89 60 0.0 1.0 0.00 0.15 0.05 52 983.8
20260508023948 89 62 0.0 1.0 0.00 0.15 0.05 53 983.7
20260508023449 88 74 0.0 1.0 0.00 0.15 0.05 54 983.6
20260508022948 88 90 0.0 1.0 0.00 0.15 0.05 54 983.9
20260508022448 88 0 0.0 0.0 0.00 0.15 0.05 54 983.9
20260508021948 87 270 0.0 1.0 0.00 0.15 0.05 55 983.8
20260508021448 87 270 0.0 1.0 0.00 0.15 0.05 56 983.8
20260508020948 86 0 0.0 0.0 0.00 0.15 0.05 56 983.8
20260508020448 86 83 0.0 3.0 0.00 0.15 0.05 56 983.9
20260508015949 86 77 0.0 3.0 0.00 0.15 0.05 55 983.9
20260508015448 86 314 0.0 1.0 0.00 0.15 0.05 58 984.1
20260508014949 86 90 0.0 1.0 0.00 0.15 0.05 58 984.0
20260508013449 85 260 0.0 4.0 0.00 0.15 0.05 59 984.5
20260508012948 85 258 0.0 4.0 0.00 0.15 0.05 60 984.1
20260508012448 85 0 0.0 0.0 0.00 0.15 0.05 60 984.1
20260508011948 85 0 0.0 0.0 0.00 0.15 0.05 60 984.2
20260508011448 85 90 0.0 1.0 0.00 0.15 0.05 60 984.3
20260508010948 84 90 0.0 1.0 0.00 0.15 0.05 60 984.3
20260508010448 84 102 0.0 1.0 0.00 0.15 0.05 60 984.2
20260508005948 83 127 0.0 1.0 0.00 0.15 0.05 60 984.1
20260508005448 83 135 0.0 1.0 0.00 0.15 0.05 62 983.9
20260508004949 83 314 0.0 1.0 0.00 0.15 0.05 62 984.1
20260508004448 82 167 0.0 1.0 0.00 0.15 0.05 63 984.0
20260508003949 82 167 0.0 1.0 0.00 0.15 0.05 63 983.9
20260508003448 82 0 0.0 0.0 0.00 0.15 0.05 63 983.9
20260508002949 82 0 0.0 0.0 0.00 0.15 0.05 63 984.0
20260508001948 82 0 0.0 0.0 0.00 0.15 0.05 64 983.8
20260508001449 81 0 0.0 0.0 0.00 0.15 0.05 68 983.8
20260508000948 81 0 0.0 0.0 0.00 0.15 0.05 68 983.7
20260508000450 81 0 0.0 0.0 0.00 0.15 0.05 68 983.7
20260507235948 81 0 0.0 0.0 0.00 0.15 0.05 69 983.5
20260507235448 81 0 0.0 0.0 0.00 0.15 0.05 69 983.7
20260507234949 80 68 0.0 1.0 0.00 0.15 0.05 69 983.6
20260507234448 80 68 0.0 1.0 0.00 0.15 0.05 70 983.6
20260507233950 80 0 0.0 0.0 0.00 0.15 0.05 70 983.7
20260507233448 80 0 0.0 0.0 0.00 0.15 0.05 71 983.6
20260507232949 79 0 0.0 0.0 0.00 0.15 0.05 72 983.6
20260507232448 79 0 0.0 0.0 0.00 0.15 0.05 72 983.5
20260507231948 79 0 0.0 0.0 0.00 0.15 0.05 72 983.7
20260507231448 78 0 0.0 0.0 0.00 0.15 0.05 71 983.5
20260507230949 78 0 0.0 0.0 0.00 0.15 0.05 72 983.5
20260507230448 78 0 0.0 0.0 0.00 0.15 0.05 72 983.4
20260507225949 78 0 0.0 0.0 0.00 0.15 0.05 72 983.6
20260507224949 78 135 0.0 1.0 0.00 0.15 0.05 72 983.2
20260507224448 78 0 0.0 0.0 0.00 0.15 0.05 72 983.2
20260507223449 78 0 0.0 0.0 0.01 0.15 0.05 73 983.1
20260507222448 78 0 0.0 0.0 0.01 0.15 0.05 73 983.0
20260507221449 77 0 0.0 0.0 0.01 0.15 0.05 74 982.9
20260507215949 77 0 0.0 0.0 0.01 0.15 0.05 74 983.0
20260507215448 77 0 0.0 0.0 0.01 0.15 0.05 74 982.9
20260507214449 76 0 0.0 0.0 0.02 0.15 0.05 75 982.8
20260507213949 76 0 0.0 0.0 0.04 0.76 0.04 75 982.7
20260507213449 76 0 0.0 0.0 0.04 0.76 0.04 75 982.8
20260507212949 76 0 0.0 0.0 0.04 0.76 0.04 75 982.8
20260507212448 76 0 0.0 0.0 0.04 0.76 0.04 75 982.6
20260507211949 76 0 0.0 0.0 0.04 0.76 0.04 74 982.7
20260507211448 76 0 0.0 0.0 0.04 0.76 0.04 75 982.6
20260507210949 76 0 0.0 0.0 0.04 0.76 0.04 75 982.6
20260507210449 76 0 0.0 0.0 0.04 0.76 0.04 74 982.7
20260507205949 77 0 0.0 0.0 0.04 0.76 0.04 74 982.7
20260507205449 77 0 0.0 0.0 0.04 0.76 0.04 74 982.5
20260507204948 77 0 0.0 0.0 0.02 0.74 0.02 74 982.4
20260507204449 77 0 0.0 0.0 0.02 0.74 0.02 74 982.6
20260507203949 77 0 0.0 0.0 0.00 0.72 0.00 74 982.4
20260507203449 77 0 0.0 0.0 0.00 0.72 0.00 75 982.3
20260507202949 77 0 0.0 0.0 0.00 0.72 0.00 75 982.3
20260507202450 77 0 0.0 0.0 0.00 0.72 0.00 74 982.4
20260507201949 77 0 0.0 0.0 0.00 0.72 0.00 74 982.2
20260507201449 77 0 0.0 0.0 0.00 0.72 0.00 74 982.2
20260507200949 77 0 0.0 0.0 0.00 0.72 0.00 74 982.0
20260507200449 77 0 0.0 0.0 0.00 0.72 0.00 74 982.2
20260507195449 77 0 0.0 0.0 0.00 0.72 0.00 74 982.2
20260507194948 77 0 0.0 0.0 0.00 0.72 0.00 74 982.3
20260507194449 77 0 0.0 0.0 0.00 0.72 0.00 74 982.1
20260507193449 77 0 0.0 0.0 0.00 0.72 0.00 74 982.0
20260507192950 77 0 0.0 0.0 0.00 0.72 0.00 74 981.8
20260507192448 77 0 0.0 0.0 0.00 0.72 0.00 73 982.0
20260507191949 77 0 0.0 0.0 0.00 0.72 0.00 74 981.9
20260507191448 77 0 0.0 0.0 0.00 0.72 0.00 74 981.9
20260507190449 77 0 0.0 0.0 0.00 0.72 0.00 74 981.8
20260507185949 77 0 0.0 0.0 0.00 0.72 0.00 74 981.9
20260507185449 77 0 0.0 0.0 0.00 0.72 0.00 74 981.8
20260507184949 77 0 0.0 0.0 0.00 0.72 0.00 74 981.6
20260507184449 77 0 0.0 0.0 0.00 0.72 0.00 73 981.8
20260507183948 77 0 0.0 0.0 0.00 0.72 0.00 73 981.7
20260507183449 77 0 0.0 0.0 0.00 0.72 0.00 73 981.7
20260507182949 77 0 0.0 0.0 0.00 0.72 0.00 73 981.9
20260507182449 77 0 0.0 0.0 0.00 0.72 0.00 73 981.9
20260507181449 77 0 0.0 0.0 0.00 0.72 0.00 73 981.6
20260507180949 77 0 0.0 0.0 0.00 0.72 0.00 73 981.7
20260507180449 77 0 0.0 0.0 0.00 0.72 0.00 73 981.7
20260507175449 77 0 0.0 0.0 0.00 0.72 0.00 73 981.9
20260507174449 77 0 0.0 0.0 0.00 0.72 0.00 73 981.9
20260507173950 77 0 0.0 0.0 0.00 0.72 0.00 73 981.9
20260507173449 78 0 0.0 0.0 0.00 0.72 0.00 72 981.9
20260507172949 78 0 0.0 0.0 0.00 0.72 0.00 72 981.8
20260507172450 78 0 0.0 0.0 0.00 0.72 0.00 72 982.0
20260507171949 78 0 0.0 0.0 0.00 0.72 0.00 72 982.1
20260507171449 78 0 0.0 0.0 0.00 0.72 0.00 72 982.0
20260507170948 78 0 0.0 0.0 0.00 0.72 0.00 72 982.1
20260507170449 78 0 0.0 0.0 0.00 0.72 0.00 72 982.0
20260507165949 78 0 0.0 0.0 0.00 0.72 0.00 73 982.2
20260507165449 78 0 0.0 0.0 0.00 0.72 0.00 72 982.1
20260507164949 78 0 0.0 0.0 0.00 0.72 0.00 73 982.1
20260507164449 78 0 0.0 0.0 0.00 0.72 0.00 73 982.2
20260507163949 78 0 0.0 0.0 0.00 0.72 0.00 73 982.3
20260507162949 78 0 0.0 0.0 0.00 0.72 0.00 73 982.2
20260507162449 78 0 0.0 0.0 0.00 0.72 0.00 73 982.2
20260507161950 78 0 0.0 0.0 0.00 0.72 0.00 73 982.2
20260507160949 78 0 0.0 0.0 0.00 0.72 0.00 73 982.2
20260507160449 78 0 0.0 0.0 0.00 0.72 0.00 73 982.2
20260507155950 78 0 0.0 0.0 0.00 0.72 0.00 73 982.4
20260507155449 78 0 0.0 0.0 0.00 0.72 0.33 73 982.5
20260507154950 78 0 0.0 0.0 0.00 0.72 0.33 73 982.6
20260507154450 78 0 0.0 0.0 0.00 0.72 0.33 72 982.6
20260507153949 78 0 0.0 0.0 0.00 0.72 0.33 72 982.5
20260507153450 78 0 0.0 0.0 0.00 0.72 0.33 72 982.8
20260507152950 78 0 0.0 0.0 0.00 0.72 0.33 72 982.6
20260507152449 78 0 0.0 0.0 0.00 0.72 0.33 72 982.7
20260507151449 78 0 0.0 0.0 0.00 0.72 0.33 72 982.7
20260507150949 78 0 0.0 0.0 0.00 0.72 0.33 73 982.7
20260507150449 78 0 0.0 0.0 0.00 0.72 0.33 73 982.8
20260507145950 78 0 0.0 0.0 0.00 0.72 0.33 72 982.8
20260507145449 78 0 0.0 0.0 0.00 0.72 0.33 72 982.7
20260507144450 79 0 0.0 0.0 0.00 0.72 0.33 72 982.7
20260507143949 79 0 0.0 0.0 0.00 0.72 0.33 72 982.9
20260507143449 79 0 0.0 0.0 0.00 0.72 0.33 72 983.0
20260507142950 79 0 0.0 0.0 0.00 0.72 0.33 72 982.8
20260507142449 79 0 0.0 0.0 0.00 0.72 0.33 72 982.7
20260507141950 79 0 0.0 0.0 0.00 0.72 0.33 72 982.9
20260507141449 79 0 0.0 0.0 0.00 0.72 0.33 72 982.7
20260507140950 79 0 0.0 0.0 0.00 0.72 0.33 72 982.7
20260507140449 79 0 0.0 0.0 0.00 0.72 0.33 72 982.7
20260507135949 79 0 0.0 0.0 0.00 0.72 0.33 72 982.6
20260507135449 79 0 0.0 0.0 0.05 0.72 0.33 72 982.7
20260507134949 79 0 0.0 0.0 0.05 0.72 0.33 72 982.9
20260507133449 80 0 0.0 0.0 0.05 0.72 0.33 71 982.4
20260507132949 80 0 0.0 0.0 0.05 0.72 0.33 71 982.6
20260507132449 80 0 0.0 0.0 0.05 0.72 0.33 71 982.5
20260507131449 80 0 0.0 0.0 0.05 0.72 0.33 71 982.7
20260507130949 80 0 0.0 0.0 0.05 0.72 0.33 71 982.5
20260507130450 80 0 0.0 0.0 0.05 0.72 0.33 71 982.4
20260507125949 80 0 0.0 0.0 0.05 0.72 0.33 70 982.4
20260507125450 80 0 0.0 0.0 0.00 0.67 0.28 71 982.5
20260507124950 80 0 0.0 0.0 0.00 0.67 0.28 71 982.2
20260507124449 80 0 0.0 0.0 0.00 0.67 0.28 71 982.3
20260507123949 80 0 0.0 0.0 0.00 0.67 0.28 70 982.5
20260507123449 80 0 0.0 0.0 0.00 0.67 0.28 70 982.3
20260507122950 80 0 0.0 0.0 0.00 0.67 0.28 70 982.5
20260507121950 80 0 0.0 0.0 0.00 0.67 0.28 70 982.2
20260507121450 81 0 0.0 0.0 0.00 0.67 0.28 70 982.4
20260507120949 81 0 0.0 0.0 0.00 0.67 0.28 70 982.3
20260507120450 81 0 0.0 0.0 0.00 0.67 0.28 70 982.4
20260507115950 81 0 0.0 0.0 0.00 0.67 0.28 70 982.2
20260507115450 81 0 0.0 0.0 0.00 0.67 0.28 70 982.2
20260507114949 81 0 0.0 0.0 0.00 0.67 0.28 70 982.2
20260507114450 81 0 0.0 0.0 0.00 0.67 0.28 70 982.2
20260507113949 81 0 0.0 0.0 0.00 0.67 0.28 70 982.1
20260507112450 81 0 0.0 0.0 0.00 0.67 0.28 69 982.0
20260507111950 81 0 0.0 0.0 0.00 0.67 0.28 69 981.9
20260507111450 82 0 0.0 0.0 0.00 0.67 0.28 64 981.9
20260507110953 82 0 0.0 0.0 0.00 0.67 0.28 65 981.8
20260507110450 82 0 0.0 0.0 0.00 0.67 0.28 65 981.8
20260507105959 82 0 0.0 0.0 0.00 1.09 0.28 65 981.7
20260507103950 82 0 0.0 0.0 0.00 1.31 0.28 64 981.6
20260507103450 82 0 0.0 0.0 0.00 1.31 0.28 64 981.5
20260507102949 82 0 0.0 0.0 0.00 1.31 0.28 63 981.6
20260507102450 82 0 0.0 0.0 0.06 1.31 0.28 63 981.4
20260507101950 82 0 0.0 0.0 0.06 1.31 0.28 62 981.5
20260507101449 83 0 0.0 0.0 0.06 1.31 0.28 62 981.5
20260507100950 83 0 0.0 0.0 0.06 1.31 0.28 62 981.5
20260507095950 83 0 0.0 0.0 0.06 1.31 0.28 62 981.2
20260507094950 84 0 0.0 0.0 0.06 1.31 0.28 61 981.2
20260507094450 84 270 0.0 1.0 0.06 1.31 0.28 61 981.0
20260507093949 84 267 0.0 1.0 0.06 1.31 0.28 61 981.0
20260507093450 84 255 0.0 1.0 0.06 1.31 0.28 61 981.2
20260507092950 84 225 0.0 1.0 0.06 1.31 0.28 61 981.2
20260507092450 84 0 0.0 0.0 0.00 1.25 0.22 60 981.1
20260507091950 84 0 0.0 0.0 0.00 1.25 0.22 60 981.2
20260507091449 85 173 0.0 1.0 0.00 1.25 0.22 60 981.2
20260507090950 85 173 0.0 1.0 0.00 1.25 0.22 60 981.1
20260507090450 85 0 0.0 0.0 0.00 1.25 0.22 59 981.0
20260507085950 85 0 0.0 0.0 0.00 1.25 0.22 58 981.3
20260507085450 85 0 0.0 0.0 0.00 1.25 0.22 58 980.9
20260507084949 86 0 0.0 0.0 0.00 1.25 0.22 58 980.9
20260507084450 86 0 0.0 0.0 0.00 1.25 0.22 57 980.9
20260507083450 86 314 0.0 1.0 0.00 1.25 0.22 57 980.7
20260507082450 87 314 0.0 2.0 0.00 1.25 0.22 58 980.8
20260507081450 87 212 0.0 2.0 0.00 1.25 0.22 57 980.7
20260507080950 87 46 0.0 1.0 0.00 1.25 0.22 56 980.6
20260507080450 87 100 0.0 3.0 0.00 1.25 0.22 55 980.7
20260507075950 87 30 0.0 3.0 0.00 1.25 0.22 55 980.7
20260507075450 87 336 0.0 3.0 0.00 1.25 0.22 55 980.8
20260507074950 87 225 0.0 1.0 0.00 1.25 0.22 55 980.6
20260507074450 88 225 0.0 1.0 0.00 1.25 0.22 55 980.7
20260507073451 88 1 0.0 1.0 0.00 1.25 0.22 55 980.7
20260507072950 88 67 0.0 2.0 0.00 1.25 0.22 55 980.4
20260507072451 88 83 0.0 2.0 0.00 1.25 0.22 55 980.6
20260507071950 88 242 0.0 2.0 0.00 1.25 0.22 55 980.7
20260507071450 88 278 0.0 2.0 0.00 1.25 0.22 56 980.8
20260507070950 88 99 0.0 4.0 0.00 1.25 0.22 55 980.5
20260507070451 88 111 0.0 4.0 0.00 1.25 0.22 56 980.9
20260507065950 88 276 0.0 2.0 0.00 1.25 0.22 57 980.7
20260507065451 88 270 0.0 1.0 0.00 1.25 0.22 57 980.7
20260507064951 88 0 0.0 0.0 0.00 1.25 0.22 57 980.6
20260507064450 88 270 0.0 4.0 0.00 1.25 0.22 57 980.7
20260507063951 88 257 0.0 4.0 0.00 1.25 0.22 57 980.9
20260507063450 88 181 0.0 1.0 0.00 1.25 0.22 57 980.7
20260507062950 88 286 0.0 3.0 0.00 1.25 0.22 58 980.6
20260507061950 88 179 0.0 1.0 0.00 1.25 0.22 59 980.7
20260507061451 88 0 0.0 0.0 0.00 1.25 0.22 59 980.9